User: anonymous   Login
Location: Forst
(46.9333°N, 15.4333°E)
Time: 04:45:08
(UTC+00:00)
Language:

COSMOS 2251 DEB - Orbit

View from above orbital plane
View from above orbital plane
View from above satellite
View from above satellite

Ground track
Ground track

The orbit data is extracted from the following two-line orbital elements,

1 37093U 93036BFP 21164.18945195  .00001093  00000-0  18098-3 0  9991
2 37093  74.0196 131.9818 0156511  73.6721 288.1592 14.63758322470341
Epoch (UTC): 13 June 2021 04:32:48
Eccentricity: 0.0156511
inclination: 74.0196°
perigee height: 570 km
apogee height: 791 km
right ascension of ascending node: 131.9818°
argument of perigee: 73.6721°
revolutions per day: 14.63758322
mean anomaly at epoch: 288.1592°
orbit number at epoch: 47034

The dashed part of the orbit path shows where the satellite is in the earth's shadow,  

DLR